Weather History for KPSF - March, 2013

Change the Weather History Date:

Thursday, March 28, 2013

  Actual Average Record
Temperature  
Mean Temperature 38 °F 36 °F  
Max Temperature 43 °F 47 °F 81 °F (1945)
Min Temperature 32 °F 26 °F 10 °F (1947)
Degree Days  
Heating Degree Days 27 29  
Month to date heating degree days 978 943  
Since 1 July heating degree days 5917 6323  
Cooling Degree Days 0 0  
Month to date cooling degree days 0 0  
Year to date cooling degree days 0 0  
Moisture  
Dew Point 29 °F    
Average Humidity 71    
Maximum Humidity 85    
Minimum Humidity 57    
Precipitation  
Precipitation T in 0.13 in 1.54 in (2005)
Month to date precipitation 1.67 2.95  
Year to date precipitation 5.30 8.55  
Sea Level Pressure  
Sea Level Pressure 29.95 in    
Wind  
Wind Speed 8 mph (NW)    
Max Wind Speed 15 mph    
Max Gust Speed 20 mph    
Visibility 9 miles    
Events Snow    
T = Trace of Precipitation, MM = Missing Value Source: NWS Daily Summary

Daily Weather History Graph

Daily Weather History Graph

Search for Another Location

Airport or City:

Trip Planner

Search our weather history database for the weather conditions in past years. The results will help you decide how hot, cold, wet, or windy it might be!

Date:

Astronomy

Mar. 28, 2013 Rise Set
Actual Time 6:42 AM EDT 7:14 PM EDT
Civil Twilight 6:13 AM EDT 7:43 PM EDT
Nautical Twilight 5:40 AM EDT 8:16 PM EDT
Astronomical Twilight 5:06 AM EDT 8:50 PM EDT
Moon 9:06 PM EDT (3/28) 7:06 AM EDT (3/28)
Length of Visible Light 13h 29m
Length of Day
12h 32m
Full, 98% of the Moon is Illuminated
Mar 28
Full
Apr 3
Last Quarter
Apr 10
New
Apr 18
First Quarter
Apr 25
Full

Hourly Weather History & Observations

Time (EDT) Temp. Windchill Dew Point Humidity Pressure Visibility Wind Dir Wind Speed Gust Speed Precip Events Conditions
12:54 AM 36.0 °F 27.1 °F 27.0 °F 70% 29.91 in 10.0 mi WNW 13.8 mph 18.4 mph N/A   Overcast
1:54 AM 35.1 °F 27.4 °F 27.0 °F 72% 29.89 in 10.0 mi WNW 10.4 mph - N/A   Overcast
2:54 AM 34.0 °F 26.6 °F 27.0 °F 75% 29.88 in 10.0 mi WNW 9.2 mph - N/A   Scattered Clouds
3:34 AM 33.8 °F 27.7 °F 28.4 °F 81% 29.88 in 10.0 mi NW 6.9 mph - N/A   Overcast
3:54 AM 34.0 °F 26.6 °F 28.0 °F 79% 29.89 in 10.0 mi WNW 9.2 mph 17.3 mph N/A   Overcast
4:37 AM 33.8 °F 27.0 °F 28.4 °F 81% 29.88 in 10.0 mi WNW 8.1 mph - N/A   Mostly Cloudy
4:54 AM 33.1 °F 26.1 °F 28.0 °F 82% 29.89 in 10.0 mi WNW 8.1 mph - N/A   Overcast
5:14 AM 33.8 °F 29.6 °F 28.4 °F 81% 29.89 in 10.0 mi NW 4.6 mph - N/A   Overcast
5:54 AM 33.1 °F 27.7 °F 28.0 °F 82% 29.91 in 10.0 mi WNW 5.8 mph - N/A   Overcast
6:54 AM 32.0 °F 27.5 °F 28.9 °F 88% 29.93 in 7.0 mi WNW 4.6 mph - N/A   Overcast
7:32 AM 33.8 °F 29.6 °F 28.4 °F 81% 29.92 in 6.0 mi WNW 4.6 mph - N/A   Overcast
7:51 AM 33.8 °F 27.0 °F 28.4 °F 81% 29.93 in 6.0 mi NW 8.1 mph - N/A   Overcast
7:54 AM 33.1 °F 27.7 °F 28.9 °F 85% 29.95 in 7.0 mi NW 5.8 mph - N/A   Overcast
8:05 AM 33.8 °F 27.7 °F 28.4 °F 81% 29.93 in 5.0 mi NW 6.9 mph - 0.00 in Snow Light Snow
8:30 AM 33.8 °F 28.6 °F 28.4 °F 81% 29.94 in 2.0 mi WNW 5.8 mph - 0.00 in Snow Light Snow
8:54 AM 34.0 °F 29.8 °F 30.0 °F 85% 29.96 in 2.5 mi WNW 4.6 mph - 0.00 in Snow Light Snow
9:05 AM 33.8 °F 27.7 °F 30.2 °F 87% 29.94 in 4.0 mi NW 6.9 mph - 0.00 in   Overcast
9:54 AM 35.1 °F 28.6 °F 30.0 °F 82% 29.97 in 7.0 mi WNW 8.1 mph - 0.00 in   Overcast
10:54 AM 36.0 °F 29.6 °F 30.0 °F 79% 29.97 in 10.0 mi NW 8.1 mph - N/A   Overcast
11:54 AM 37.9 °F 30.9 °F 30.0 °F 73% 29.98 in 10.0 mi NW 10.4 mph - N/A   Overcast
12:54 PM 39.9 °F 34.5 °F 30.0 °F 68% 29.97 in 10.0 mi NNW 8.1 mph - N/A   Overcast
1:54 PM 41.0 °F 34.7 °F 28.9 °F 62% 29.97 in 10.0 mi NNW 10.4 mph 18.4 mph N/A   Overcast
2:09 PM 42.8 °F 37.5 °F 30.2 °F 61% 29.95 in 10.0 mi NW 9.2 mph 16.1 mph N/A   Overcast
2:26 PM 41.0 °F 36.4 °F 30.2 °F 65% 29.95 in 10.0 mi NW 6.9 mph - N/A   Overcast
2:54 PM 42.1 °F 37.1 °F 30.0 °F 62% 29.97 in 10.0 mi NNW 8.1 mph - N/A   Overcast
3:22 PM 42.8 °F 37.5 °F 30.2 °F 61% 29.95 in 10.0 mi WNW 9.2 mph - N/A   Overcast
3:38 PM 41.0 °F 34.7 °F 30.2 °F 65% 29.95 in 10.0 mi WNW 10.4 mph - N/A   Overcast
3:54 PM 41.0 °F 35.2 °F 30.0 °F 65% 29.96 in 10.0 mi WNW 9.2 mph - N/A   Overcast
4:28 PM 42.8 °F 38.0 °F 30.2 °F 61% 29.95 in 10.0 mi WNW 8.1 mph - N/A   Overcast
4:54 PM 42.1 °F 35.7 °F 28.9 °F 60% 29.97 in 10.0 mi WNW 11.5 mph 18.4 mph N/A   Overcast
5:54 PM 43.0 °F 37.7 °F 30.0 °F 60% 29.98 in 10.0 mi NW 9.2 mph - N/A   Overcast
6:54 PM 42.1 °F 38.4 °F 30.0 °F 62% 30.00 in 10.0 mi Variable 5.8 mph - N/A   Overcast
7:54 PM 41.0 °F 37.1 °F 30.0 °F 65% 30.01 in 10.0 mi WNW 5.8 mph - N/A   Overcast
8:54 PM 39.9 °F 34.5 °F 28.9 °F 65% 30.03 in 10.0 mi West 8.1 mph - N/A   Overcast
9:54 PM 39.9 °F 36.7 °F 28.9 °F 65% 30.05 in 10.0 mi WNW 4.6 mph - N/A   Overcast
10:54 PM 37.9 °F 35.5 °F 30.0 °F 73% 30.06 in 10.0 mi NW 3.5 mph - N/A   Overcast
11:54 PM 37.0 °F 32.4 °F 30.0 °F 76% 30.06 in 10.0 mi West 5.8 mph - N/A   Scattered Clouds